[[{"header":{"parameterUnit":"m.s-1","parameterCategory":1,"la1":30.2991,"la2":30.254,"lo1":-89.0895,"lo2":-89.0444,"dy":0.0017,"dx":0.0017,"nx":28,"ny":28,"refTime":"2025-11-12T03:00:00:Z","depth":0,"parameterNumber":2,"parameterNumberName":"U-component_of_WINDS"},"data":[0,0,0,0,0,0,0,0,0,0,0,0,0,0,0,0,0,0,0,0,0,0,0,0,0,0,0,0,0,0,0,0,0,0,0,0,0,0,0,0,0,0,0,0,0,0,0,0,0,0,0,0,0,0,0,0,0,0,1.9308,1.9308,0,1.9329,1.9329,1.9329,1.9298,1.9297,1.9296,1.9295,1.9314,1.9316,1.9317,0,0,0,0,0,0,0,0,0,0,0,0,0,1.9238,1.924,1.9308,1.9308,1.9309,1.9329,1.9329,1.9329,1.9298,1.9297,1.9296,1.9294,1.9314,1.9316,1.9317,0,0,0,0,0,0,0,0,0,0,0,0,0,1.9265,1.924,1.9308,1.9296,1.9295,1.9329,1.9329,1.933,1.9299,1.9297,1.9295,1.9294,1.9313,1.9315,1.9318,1.9364,0,0,1.9325,1.9326,0,0,0,0,0,0,0,0,1.9263,1.9267,1.9297,1.9297,1.9296,1.9309,1.9312,1.9341,1.9299,1.9297,1.9295,1.9293,1.9314,1.9316,1.9323,1.9365,1.9366,1.9325,1.9326,1.9327,1.9328,0,0,0,0,0,0,0,1.9261,1.9266,1.9316,1.9298,1.9297,1.9288,1.929,1.9317,1.9314,1.9297,1.9295,1.9298,1.9313,1.9321,1.9324,1.9366,1.9325,1.9327,1.9328,1.9329,1.9444,1.9445,0,0,0,0,0,0,1.9261,1.9265,1.9316,1.9317,1.9275,1.929,1.9293,1.9307,1.9314,1.9314,1.9299,1.9296,1.9318,1.9321,1.9324,1.9376,1.9327,1.9329,1.9331,1.9442,1.9444,1.9446,0,0,0,0,0,0,1.926,1.9266,1.9315,1.929,1.9296,1.9293,1.9309,1.9308,1.9316,1.9316,1.9315,1.9308,1.9317,1.9321,1.9354,1.9377,1.933,1.9333,1.944,1.9443,1.9445,1.9483,0,0,0,0,0,0,1.9258,1.9266,1.9285,1.9291,1.9297,1.9345,1.9311,1.9309,1.932,1.9317,1.9324,1.9323,1.9316,1.9351,1.9356,1.9379,1.9334,1.9438,1.9441,1.9444,1.9479,1.9486,1.9492,0,0,0,0,0,1.9256,1.9295,1.9286,1.9292,1.9321,1.9347,1.935,1.9341,1.9322,1.934,1.9339,1.9323,1.9374,1.9354,1.936,1.9384,1.9437,1.944,1.9444,1.9476,1.9485,1.9492,0,0,0,0,0,0,1.9291,1.9296,1.9286,1.9328,1.9337,1.9341,1.9364,1.9351,1.9366,1.9362,1.935,1.9351,1.9386,1.9389,1.9367,1.9428,1.9402,1.9407,1.9424,1.9432,1.9438,1.9436,1.9336,0,0,0,0,0,1.9304,1.9326,1.9328,1.9365,1.9371,1.9367,1.9378,1.937,1.9379,1.9382,1.9384,1.9393,1.941,1.9422,1.9438,1.948,1.948,1.9499,1.9506,1.9511,1.9515,1.9534,1.9542,1.9458,1.9458,1.9458,0,0,1.9331,1.9336,1.935,1.9373,1.9379,1.94,1.937,1.9394,1.9409,1.9386,1.9416,1.9418,1.9426,1.9463,1.948,1.9466,1.9538,1.9516,1.952,1.9521,1.9538,1.9546,1.9553,1.9461,1.946,1.946,0,0,1.9389,1.9397,1.9427,1.9433,1.9443,1.9439,1.9447,1.9453,1.9452,1.9483,1.9465,1.9482,1.9514,1.9519,1.9526,1.9585,1.9569,1.9591,1.9623,1.9641,1.9648,1.9654,1.9671,1.9678,1.9595,1.9595,1.9595,0,1.9421,1.9453,1.9444,1.9468,1.9477,1.9457,1.9486,1.9493,1.9507,1.9513,1.9499,1.9535,1.954,1.9576,1.959,1.9598,1.9604,1.9589,1.9648,1.9653,1.9659,1.9675,1.9682,1.9597,1.9597,1.9597,1.9597,0,1.9489,1.9511,1.9534,1.9547,1.9559,1.9586,1.958,1.9593,1.9584,1.9582,1.9611,1.9616,1.9631,1.964,1.9632,1.9674,1.9666,1.965,1.9623,1.9669,1.9684,1.9691,1.9601,1.96,1.9599,1.9599,0,0,1.957,1.9577,1.9585,1.9589,1.9598,1.9614,1.9639,1.9654,1.9664,1.9675,1.9693,1.9719,1.9704,1.9712,1.9705,1.9722,1.9763,1.9703,1.9703,1.9711,1.9806,1.9816,1.9824,1.9754,1.9755,1.9756,1.9804,0,1.9625,1.9668,1.966,1.9701,1.9719,1.97,1.9721,1.9728,1.9726,1.9741,1.9739,1.9756,1.9737,1.9741,1.9757,1.9755,1.9782,1.9752,1.9769,1.977,1.9764,1.9832,1.9843,1.9888,1.9811,1.9812,1.9813,0,1.9696,1.9707,1.975,1.9753,1.976,1.9779,1.9791,1.9806,1.9812,1.9809,1.9818,1.9806,1.9829,1.9804,1.9834,1.9813,1.982,1.982,1.9822,1.9821,1.9792,1.983,1.9903,1.9908,1.9823,1.9822,1.9821,0,1.9746,1.9773,1.9801,1.9806,1.981,1.9824,1.9826,1.9831,1.984,1.985,1.9855,1.9868,1.9874,1.9884,1.9876,1.9859,1.9906,1.9881,1.9902,1.9902,1.9911,1.991,1.9982,1.992,1.992,1.992,1.992,0,1.9807,1.9833,1.9823,1.984,1.9868,1.9858,1.9885,1.9885,1.9889,1.9905,1.989,1.9905,1.9894,1.9908,1.9902,1.9926,1.993,1.9926,1.9924,1.9926,1.9926,1.9928,1.9924,1.9922,1.9922,1.9921,1.9921,0,1.9866,1.9861,1.989,1.9892,1.9893,1.9913,1.9913,1.9928,1.9925,1.9945,1.9949,1.9944,1.9959,1.9952,1.9969,1.9964,1.9994,1.9989,1.9991,1.9989,2.0009,2.0006,2.0084,2.0092,2.0028,2.0028,2.0029,0,1.9904,1.9923,1.9926,1.9935,1.9939,1.9954,1.9962,1.9953,1.9962,1.9969,1.9983,1.9997,2.0006,2.0031,2.0028,2.004,2.0033,2.0059,2.0035,2.0035,2.0029,2.0027,2.0028,2.0063,2.0064,2.0065,2.0065,0,1.997,1.9966,1.9979,1.999,2.0,2.0008,2.0015,2.0024,2.0014,2.0025,2.004,2.0048,2.0063,2.0076,2.0086,2.0087,2.0074,2.0073,2.0078,2.0079,2.0079,2.0076,2.0001,2.0071,2.007,2.007,2.007,2.007,2.0018,2.0033,2.0036,2.005,2.0054,2.0061,2.0074,2.0072,2.0084,2.0095,2.0089,2.0106,2.0109,2.0121,2.0124,2.0136,2.0126,2.0134,2.0135,2.0137,2.0138,2.0079,2.0138,2.0138,2.0138,2.0138,2.0138,0,2.008,2.0081,2.0094,2.0103,2.0114,2.0101,2.0108,2.0117,2.0131,2.0136,2.0146,2.0161,2.0173,2.0172,2.0182,2.0192,2.0186,2.0194,2.0192,2.0192,2.0148,2.0141,2.0199,2.0199,2.0199,2.0199,2.0199,2.0199,2.0114,2.0137,2.0133,2.0157,2.0158,2.0174,2.0178,2.0183,2.0187,2.0204,2.0214,2.0213,2.0214,2.0224,2.0234,2.0233,2.0236,2.0247,2.0243,2.0202,2.0196,2.019,2.0183,2.0248,2.0248,2.0286,2.0286,2.0286]},{"header":{"parameterUnit":"m.s-1","parameterCategory":1,"la1":30.2991,"la2":30.254,"lo1":-89.0895,"lo2":-89.0444,"dy":0.0017,"dx":0.0017,"nx":28,"ny":28,"refTime":"2025-11-12T03:00:00:Z","depth":0,"parameterNumber":3,"parameterNumberName":"V-component_of_WINDS"},"data":[0,0,0,0,0,0,0,0,0,0,0,0,0,0,0,0,0,0,0,0,0,0,0,0,0,0,0,0,0,0,0,0,0,0,0,0,0,0,0,0,0,0,0,0,0,0,0,0,0,0,0,0,0,0,0,0,0,0,4.1295,4.1296,0,4.1332,4.1333,4.1333,4.1268,4.1265,4.1263,4.1261,4.1298,4.1301,4.1304,0,0,0,0,0,0,0,0,0,0,0,0,0,4.1164,4.1167,4.1295,4.1296,4.1296,4.1332,4.1333,4.1333,4.1268,4.1265,4.1263,4.126,4.1297,4.13,4.1304,0,0,0,0,0,0,0,0,0,0,0,0,0,4.1213,4.1168,4.1295,4.1268,4.1266,4.1332,4.1333,4.1333,4.1269,4.1265,4.1262,4.1259,4.1295,4.13,4.1304,4.1398,0,0,4.1318,4.132,0,0,0,0,0,0,0,0,4.1211,4.1218,4.1272,4.127,4.1268,4.1292,4.13,4.1355,4.1269,4.1268,4.1261,4.1257,4.1298,4.1302,4.1316,4.14,4.1401,4.1319,4.1321,4.1323,4.1324,0,0,0,0,0,0,0,4.1207,4.1216,4.131,4.1272,4.127,4.1253,4.1256,4.131,4.1301,4.1267,4.1263,4.1268,4.1297,4.1312,4.1317,4.1402,4.1318,4.1322,4.1325,4.1327,4.1558,4.1562,0,0,0,0,0,0,4.1208,4.1214,4.1308,4.1311,4.1231,4.1258,4.1261,4.1287,4.13,4.1299,4.1271,4.1265,4.1306,4.1312,4.1318,4.1424,4.1323,4.1327,4.133,4.1555,4.1559,4.1563,0,0,0,0,0,0,4.1205,4.1217,4.1307,4.1261,4.1271,4.1264,4.1293,4.129,4.1305,4.1303,4.1301,4.1289,4.1304,4.1312,4.1377,4.1425,4.1329,4.1334,4.1551,4.1556,4.1561,4.1641,0,0,0,0,0,0,4.1202,4.1216,4.1253,4.1262,4.1274,4.1367,4.1296,4.1293,4.1314,4.1306,4.1319,4.1318,4.1302,4.1371,4.1382,4.1429,4.1337,4.1547,4.1553,4.1559,4.1634,4.1648,4.166,0,0,0,0,0,4.1197,4.1275,4.1255,4.1267,4.132,4.137,4.1377,4.1357,4.1318,4.1353,4.1351,4.1317,4.1419,4.1378,4.139,4.144,4.1543,4.1551,4.1559,4.1628,4.1645,4.166,0,0,0,0,0,0,4.1271,4.1275,4.1254,4.1337,4.1354,4.1359,4.1404,4.1377,4.1405,4.1397,4.1371,4.1374,4.1444,4.1449,4.1404,4.1528,4.1474,4.1485,4.1522,4.1539,4.1552,4.1548,4.1341,0,0,0,0,0,4.1297,4.1339,4.134,4.1413,4.1423,4.1412,4.1433,4.1417,4.1433,4.1439,4.1442,4.1458,4.1493,4.1517,4.1549,4.1635,4.1634,4.1674,4.1688,4.1698,4.1707,4.1748,4.1764,4.1588,4.1588,4.1588,0,0,4.1352,4.1359,4.1387,4.1428,4.1439,4.148,4.1418,4.1466,4.1496,4.1447,4.1508,4.151,4.1527,4.1602,4.1635,4.1607,4.1755,4.1708,4.1717,4.1719,4.1757,4.1774,4.1789,4.1594,4.1593,4.1592,0,0,4.147,4.1482,4.1542,4.1553,4.157,4.1562,4.1577,4.1586,4.1585,4.1647,4.1609,4.1644,4.1706,4.1718,4.1732,4.1852,4.1821,4.1864,4.1931,4.1972,4.1985,4.1997,4.2036,4.2051,4.1873,4.1873,4.1873,0,4.1535,4.1597,4.1576,4.1625,4.1642,4.1599,4.1658,4.167,4.1697,4.171,4.1679,4.1753,4.1762,4.1836,4.1865,4.188,4.1893,4.1861,4.1985,4.1997,4.2008,4.2045,4.206,4.1878,4.1877,4.1877,4.1876,0,4.1673,4.1717,4.1763,4.1788,4.1812,4.1866,4.185,4.1876,4.1857,4.1852,4.1913,4.1921,4.1952,4.197,4.1952,4.2041,4.2023,4.199,4.1934,4.203,4.2064,4.2078,4.1885,4.1883,4.1881,4.188,0,0,4.184,4.1851,4.1868,4.1877,4.1892,4.1924,4.1975,4.2005,4.2025,4.2046,4.2085,4.2137,4.2105,4.2121,4.2105,4.2141,4.223,4.2102,4.2102,4.2122,4.2324,4.2346,4.2363,4.2211,4.2213,4.2216,4.2321,0,4.1955,4.2041,4.2022,4.2107,4.2144,4.2103,4.2146,4.2159,4.2155,4.2185,4.2181,4.2216,4.2174,4.2182,4.2216,4.2212,4.227,4.2205,4.2244,4.2246,4.2238,4.2381,4.2406,4.2505,4.2334,4.2337,4.2338,0,4.21,4.2123,4.2211,4.2216,4.2231,4.227,4.2294,4.2325,4.2337,4.2331,4.2348,4.2324,4.2371,4.2318,4.2381,4.2337,4.2353,4.2353,4.2356,4.2356,4.2296,4.2381,4.2536,4.255,4.236,4.2358,4.2357,0,4.2207,4.2261,4.2319,4.2329,4.2337,4.2365,4.2369,4.2378,4.2396,4.2418,4.2428,4.2456,4.247,4.249,4.2473,4.2436,4.2538,4.2484,4.2532,4.2532,4.2552,4.2551,4.2708,4.2569,4.2569,4.2569,4.2568,0,4.2335,4.2389,4.2366,4.2402,4.246,4.2437,4.2496,4.2496,4.2504,4.2537,4.2504,4.2536,4.2513,4.2542,4.253,4.2582,4.2589,4.2584,4.2579,4.2585,4.2585,4.2592,4.2583,4.2572,4.2572,4.2571,4.257,0,4.2463,4.2451,4.251,4.2512,4.2514,4.2557,4.2557,4.2589,4.2582,4.2625,4.2633,4.2622,4.2655,4.264,4.2675,4.2666,4.2732,4.272,4.2727,4.2723,4.277,4.2764,4.2935,4.2954,4.2806,4.2808,4.2809,0,4.2543,4.2584,4.2589,4.2609,4.2615,4.2648,4.2665,4.2644,4.2663,4.2678,4.2708,4.2738,4.276,4.2813,4.2808,4.2833,4.2819,4.2877,4.2823,4.2826,4.2815,4.2811,4.2813,4.2887,4.2889,4.289,4.2891,0,4.2686,4.2677,4.2704,4.2727,4.2749,4.2767,4.2782,4.2799,4.2778,4.2801,4.2834,4.2851,4.2885,4.2913,4.2935,4.2939,4.2911,4.2909,4.292,4.2925,4.2926,4.2921,4.2753,4.2904,4.2903,4.2902,4.2901,4.2901,4.279,4.2822,4.283,4.2859,4.2868,4.2882,4.291,4.2906,4.2933,4.2958,4.2944,4.2981,4.2989,4.3016,4.3023,4.305,4.3027,4.3045,4.3049,4.3053,4.3057,4.2924,4.3055,4.3054,4.3054,4.3054,4.3053,0,4.2927,4.2929,4.2957,4.2977,4.3,4.2972,4.2986,4.3007,4.3039,4.3049,4.3071,4.3107,4.3134,4.313,4.3154,4.3176,4.3164,4.3183,4.3179,4.318,4.3078,4.3064,4.3192,4.3192,4.3192,4.3192,4.3192,4.3192,4.3001,4.3052,4.3044,4.3098,4.31,4.3135,4.3145,4.3156,4.3164,4.3204,4.3226,4.3223,4.3227,4.3251,4.3274,4.3272,4.328,4.3304,4.3297,4.3201,4.3187,4.3174,4.316,4.3307,4.3307,4.3395,4.3396,4.3396]}]]